Location: *
(35.2348°S, 91.3916°E)
Time: 12:57:13
(UTC+00:00)

Cosmos 2084 - Pass Details

Date: 23 October 2019
Orbit: 555 x 627 km, 62.8° (Epoch: 21 November)

Event Time Altitude Azimuth Distance (km) Brightness Sun altitude
Exits shadow 21:49:15 25° 283° (WNW) 1,170 4.4 -14.6°
Maximum altitude 21:51:06 38° 233° (SW) 883 4.1 -14.3°
Drops below altitude 10° 21:55:06 10° 164° (SSE) 1,897 6.6 -13.6°
Sets 21:57:30 0° 155° (SSE) 2,813 7.8 -13.1°
